This demonstration page uses our WeatherBlox Daily Observations layout. Learn more.

Hourly Observations for December 15, 2016

Temp ( °F °C ) Dew Point ( °F °C ) Humidity (%) Winds ( mph kmh ) Pressure ( in mb ) Visibility ( mi km ) Precip ( " mm )
12:15 am 00:15 Mostly Cloudy 17 -8.2 5 -15.2 57 57 Calm 30.56 1035 10 16.0934 0 0
12:35 am 00:35 Cloudy 19 -7.3 6 -14.6 56 56 Calm 30.53 1034 10 16.0934 0 0
12:55 am 00:55 Cloudy 19 -7.1 6 -14.2 57 57 S 3 6 30.53 1034 10 16.0934 0 0
1:15 am 01:15 Cloudy 20 -6.8 7 -13.7 58 58 S 3 6 30.53 1034 10 16.0934 0 0
1:35 am 01:35 Cloudy 21 -6.3 7 -14 55 55 S 5 7 30.56 1035 10 16.0934 0 0
1:55 am 01:55 Cloudy 21 -6 6 -14.2 53 53 S 5 7 30.5 1033 10 16.0934 0 0
2:15 am 02:15 Cloudy 22 -5.6 7 -14 52 52 S 3 6 30.5 1033 10 16.0934 0 0
2:35 am 02:35 Cloudy 22 -5.5 7 -14.1 51 51 S 5 7 30.5 1033 10 16.0934 0 0
2:55 am 02:55 Cloudy 22 -5.5 7 -13.8 52 52 SSW 7 11 30.5 1033 10 16.0934 0 0
3:15 am 03:15 Cloudy 22 -5.5 7 -14 52 52 S 6 9 30.5 1033 10 16.0934 0 0
3:35 am 03:35 Cloudy 22 -5.3 7 -13.8 52 52 S 3 6 30.48 1032 10 16.0934 0 0
3:55 am 03:55 Cloudy 23 -5.1 7 -14.1 50 50 S 8 13 30.48 1032 10 16.0934 0 0
4:15 am 04:15 Cloudy 23 -5 6 -14.7 47 47 S 7 11 30.48 1032 10 16.0934 0 0
4:35 am 04:35 Cloudy 23 -5 5 -15 46 46 S 7 11 30.45 1031 10 16.0934 0 0
4:55 am 04:55 Cloudy 23 -5 5 -15 46 46 S 10 17 30.45 1031 10 16.0934 0 0
5:15 am 05:15 Cloudy 23 -5 5 -15 46 46 S 7 11 30.45 1031 10 16.0934 0 0
5:35 am 05:35 Cloudy 23 -5.1 5 -15.1 46 46 S 8 13 30.45 1031 10 16.0934 0 0
5:55 am 05:55 Cloudy 23 -5.1 5 -15 46 46 S 8 13 30.42 1030 10 16.0934 0 0
6:15 am 06:15 Cloudy 23 -5 5 -15.2 45 45 S 12 19 30.42 1030 10 16.0934 0 0
6:35 am 06:35 Cloudy 23 -5 5 -15.2 45 45 S 9 15 30.42 1030 10 16.0934 0 0
6:55 am 06:55 Cloudy 23 -5.2 6 -14.2 50 50 SSE 10 17 30.42 1030 10 16.0934 0 0
7:15 am 07:15 Cloudy 22 -5.8 6 -14.3 51 51 SSE 9 15 30.42 1030 10 16.0934 0 0
7:35 am 07:35 Partly Cloudy 20 -6.6 7 -14.1 56 56 SSE 7 11 30.42 1030 10 16.0934 0 0
7:55 am 07:55 Partly Cloudy 19 -7.5 7 -14 60 60 SSE 6 9 30.45 1031 10 16.0934 0 0
8:15 am 08:15 Sunny 18 -7.8 7 -14 61 61 SSE 7 11 30.45 1031 10 16.0934 0 0
8:35 am 08:35 Sunny 19 -7.4 7 -13.8 61 61 SSE 10 17 30.45 1031 10 16.0934 0 0
8:55 am 08:55 Partly Cloudy 19 -7 7 -13.9 58 58 SSE 10 17 30.39 1029 10 16.0934 0 0
9:15 am 09:15 Partly Cloudy 20 -6.6 7 -14 56 56 SSE 14 22 30.39 1029 10 16.0934 0 0
9:35 am 09:35 Sunny 20 -6.4 6 -14.5 53 53 SSE 14 22 30.39 1029 10 16.0934 0 0
9:55 am 09:55 Sunny 21 -6.2 5 -15 50 50 SSE 16 26 30.39 1029 10 16.0934 0 0
10:15 am 10:15 Sunny 22 -5.6 5 -15.1 48 48 S 15 24 30.39 1029 10 16.0934 0 0
10:35 am 10:35 Sunny 23 -5.1 3 -16.2 42 42 S 16 26 30.36 1028 10 16.0934 0 0
10:55 am 10:55 Sunny 24 -4.7 1 -17.5 36 36 S 20 31 30.33 1027 10 16.0934 0 0
11:15 am 11:15 Sunny 24 -4.3 0 -18 34 34 S 21 33 30.33 1027 10 16.0934 0 0
11:35 am 11:35 Sunny 25 -4 -2 -18.8 31 31 S 21 33 30.3 1026 10 16.0934 0 0
11:55 am 11:55 Sunny 25 -3.7 -3 -19.6 28 28 S 23 37 30.27 1025 10 16.0934 0 0
12:15 pm 12:15 Sunny 26 -3.2 -5 -20.4 25 25 S 26 43 30.27 1025 10 16.0934 0 0
12:35 pm 12:35 Sunny 27 -2.9 -5 -20.5 25 25 S 24 39 30.24 1024 10 16.0934 0 0
12:55 pm 12:55 Sunny 27 -2.6 -4 -20 25 25 S 28 44 30.18 1022 10 16.0934 0 0
1:15 pm 13:15 Partly Cloudy 28 -2.5 -4 -19.9 25 25 SSE 28 44 30.18 1022 10 16.0934 0 0
1:35 pm 13:35 Partly Cloudy 28 -2.4 -3 -19.5 26 26 S 26 43 30.18 1022 10 16.0934 0 0
1:55 pm 13:55 Partly Cloudy 28 -2.5 -1 -18.4 29 29 S 25 41 30.15 1021 10 16.0934 0 0
2:15 pm 14:15 Partly Cloudy 27 -2.6 -1 -18.3 29 29 S 24 39 30.12 1020 10 16.0934 0 0
2:35 pm 14:35 Partly Cloudy 27 -2.9 -2 -19.1 28 28 S 23 37 30.09 1019 10 16.0934 0 0
2:55 pm 14:55 Sunny 28 -2.4 -3 -19.2 27 27 S 22 35 30.09 1019 10 16.0934 0 0
3:15 pm 15:15 Sunny 29 -1.9 -3 -19.5 25 25 S 22 35 30.12 1020 10 16.0934 0 0
3:35 pm 15:35 Sunny 28 -2.2 -5 -20.4 24 24 S 21 33 30.12 1020 10 16.0934 0 0
3:55 pm 15:55 Sunny 28 -2.3 -4 -20 25 25 S 22 35 30.12 1020 10 16.0934 0 0
4:15 pm 16:15 Sunny 27 -2.6 -4 -19.9 25 25 S 20 31 30.09 1019 10 16.0934 0 0
4:35 pm 16:35 Sunny 27 -2.8 -3 -19.6 26 26 S 17 28 30.09 1019 10 16.0934 0 0
4:55 pm 16:55 Sunny 26 -3.4 -3 -19.2 29 29 S 18 30 30.09 1019 10 16.0934 0 0
5:15 pm 17:15 Clear 25 -3.8 -3 -19.2 29 29 S 20 31 30.12 1020 10 16.0934 0 0
5:35 pm 17:35 Clear 25 -4.1 -2 -19 31 31 SSE 15 24 30.12 1020 10 16.0934 0 0
5:55 pm 17:55 Clear 24 -4.7 -1 -18.6 33 33 SSE 14 22 30.12 1020 10 16.0934 0 0
6:15 pm 18:15 Clear 23 -5 -1 -18.5 34 34 SSE 15 24 30.09 1019 10 16.0934 0 0
6:35 pm 18:35 Clear 23 -5 -1 -18.2 35 35 SSE 15 24 30.09 1019 10 16.0934 0 0
6:55 pm 18:55 Clear 22 -5.4 0 -17.9 37 37 SSE 13 20 30.06 1018 10 16.0934 0 0
7:15 pm 19:15 Clear 22 -5.4 0 -17.6 38 38 SSE 14 22 30.06 1018 10 16.0934 0 0
7:35 pm 19:35 Clear 22 -5.5 1 -17.5 39 39 SSE 14 22 30.06 1018 10 16.0934 0 0
7:55 pm 19:55 Clear 23 -5.2 1 -17.5 38 38 SSE 14 22 30.06 1018 10 16.0934 0 0
8:15 pm 20:15 Clear 23 -5 1 -17.5 37 37 SSE 15 24 30.06 1018 10 16.0934 0 0
8:35 pm 20:35 Clear 23 -4.8 1 -17.2 38 38 SSE 15 24 30.03 1017 10 16.0934 0 0
8:55 pm 20:55 Clear 24 -4.7 1 -17.1 38 38 SSE 14 22 30.03 1017 10 16.0934 0 0
9:15 pm 21:15 Clear 24 -4.7 1 -17 38 38 SSE 14 22 30.03 1017 10 16.0934 0 0
9:35 pm 21:35 Clear 24 -4.6 1 -17 38 38 S 16 26 29.97 1015 10 16.0934 0 0
9:55 pm 21:55 Partly Cloudy 24 -4.7 1 -17 38 38 S 20 31 29.97 1015 10 16.0934 0 0
10:15 pm 22:15 Partly Cloudy 23 -5 2 -16.7 40 40 S 13 20 30 1016 10 16.0934 0 0
10:35 pm 22:35 Clear 22 -5.5 2 -16.5 42 42 SSE 10 17 29.97 1015 10 16.0934 0 0
10:55 pm 22:55 Clear 22 -5.5 3 -16.1 43 43 SSE 15 24 29.97 1015 10 16.0934 0 0
11:15 pm 23:15 Clear 22 -5.4 4 -15.5 45 45 SSE 13 20 29.97 1015 10 16.0934 0 0
11:35 pm 23:35 Clear 22 -5.5 5 -15 48 48 SSE 14 22 29.97 1015 10 16.0934 0 0
11:55 pm 23:55 Clear 22 -5.5 6 -14.5 50 50 S 14 22 29.94 1014 10 16.0934 0 0

Powered by AerisWeather